Location: Montreal
(45.5000°N, 73.5833°W)
Time: 21:24:14
(UTC-04:00)

Vanguard 3 - Visible Passes

Search period start: 17 July 2018 00:00
Search period end: 27 July 2018 00:00
Orbit: 508 x 3264 km, 33.3° (Epoch: 17 July)

Date Brightness Start Highest point End Pass type
(mag) Time Alt. Az. Time Alt. Az. Time Alt. Az.
17 Jul 8.5 22:57:11 10° WSW 23:02:18 21° SSW 23:02:49 21° SSW visible
18 Jul 8.7 21:41:12 10° WSW 21:48:59 30° SSW 21:53:05 15° SE visible
18 Jul 9.4 23:57:33 10° SW 23:57:39 10° SW 23:57:39 10° SW visible
19 Jul 8.6 22:40:33 10° WSW 22:46:21 22° SSW 22:47:53 20° S visible
20 Jul 8.9 21:24:12 10° WSW 21:33:00 32° SSW 21:38:07 12° SE visible
20 Jul 9.4 23:41:21 10° WSW 23:42:41 11° SW 23:42:41 11° SW visible
21 Jul 8.8 22:23:48 10° WSW 22:30:20 22° SSW 22:32:54 18° S visible
22 Jul 9.1 21:07:05 10° WSW 21:16:54 34° SSW 21:22:57 10° SE visible
22 Jul 9.5 23:25:05 10° WSW 23:27:12 11° SW 23:27:41 11° SW visible
23 Jul 9.1 22:06:57 10° WSW 22:14:12 23° SSW 22:17:54 15° S visible
24 Jul 9.6 23:08:47 10° WSW 23:11:00 11° SW 23:12:40 10° SSW visible
25 Jul 9.4 21:50:01 10° W 21:57:58 23° SW 22:02:53 12° S visible
26 Jul 9.8 22:52:30 10° WSW 22:54:41 11° SW 22:56:38 10° SSW visible
